Torna al catalogo

STARLINK-3124

AttivoComunicazioniVLEO
NORAD 49456·PAYLOAD·🇺🇸 United States

Lanciato Nov 13, 2021 da Cape Canaveral Space Force Station

Loading…

Prossimi Passaggi (prossime 24 ore)

TLE

AggiornatoSource: CelesTrak SupGP

Epoca: Sep 15, 2026, 01:42 UTC

1 49456C 21104BA  26258.07131944 -.00005350  00000+0 -16237-3 0  2582
2 49456  53.1573  77.1900 0001156  83.3716 354.8101 15.33547405    19

Traccia STARLINK-3124 in tempo reale con AllMySat

Download on the App Store